User: anonymous   Login
Location: Zagreb
(45.8000°N, 16.0000°E)
Time: 02:41:09
(UTC+02:00)
Language:

deb Explorer IX - Orbit

View from above orbital plane
View from above orbital plane
View from above satellite
View from above satellite

Ground track
Ground track

The orbit data is extracted from the following two-line orbital elements,

1    85U 61004C   20225.95916985 +.00004304 +00000-0 +92017-3 0  9990
2    85 038.7719 092.7567 0389848 157.9378 203.8660 14.21016066939133
Epoch (UTC): 12 August 2020 23:01:12
Eccentricity: 0.0389848
inclination: 38.7719°
perigee height: 541 km
apogee height: 1102 km
right ascension of ascending node: 92.7567°
argument of perigee: 157.9378°
revolutions per day: 14.21016066
mean anomaly at epoch: 203.8660°
orbit number at epoch: 93913

The dashed part of the orbit path shows where the satellite is in the earth's shadow,  

DLR